Flight Briefing for CMB832

Departure Arrival
Bagram Air Base (OAIX)
Click to view FAA NOTAMS
Ramstein Air Force Base (ETAR)
Click to view FAA NOTAMS
Departure Time Arrival Time
N/A N/A
Aircraft Distance
B767-300BDSF 2799nm
Departure METAR Arrival METAR
OAIX 230558Z 26004KT 9000 -RA FEW015 OVC043 16/13 A3002 RMK AO2A RAB40 SLPNO P0000 60006 52004 $ ETAR 230556Z AUTO 00000KT 9999 CLR 08/07 A3013 RMK AO2 SLP207 T00770066 10077 20031 55000 $
Suggested Route





View recent IFR Routes data
Notes
USTRANSCOM CONTRACT FLIGHT

Charts and Procedures

Charts for OAIX
No chart available
Charts for ETAR
No chart available

Windy.com Weather Map